Home > Weather > Bangor > Past weeks

Flag for United Kingdom Past Weather in Bangor, Wales, United Kingdom — Yesterday and Last 2 Weeks

Now
63 °F

Mild.


Feels Like: 63 °F
Forecast: 55 / 64 °F
Wind: 10 mph from Northeast

Location: Capel Curig

Current Time: Aug 27, 2016 at 8:01:48 PM

Latest Report: Aug 27, 2016 at 7:00 PM


Visibility: 19 mi

Pressure: 29.91 "Hg

Humidity: 83%

Dew Point: 58 °F

Location of BangorLocation

Past Weather in Bangor — Graph

°F

Bangor Temperature Yesterday

Maximum temperature yesterday: 61 °F (at 3:00 PM)
Minimum temperature yesterday: 53 °F (at 3:00 AM)
Average temperature yesterday: 57 °F

High & Low Weather Summary for the Past Weeks

 TemperatureHumidityPressure
High73 °F (Aug 16, 5:00 PM)100% (Aug 15, 3:00 AM)30.36 "Hg (Aug 15, 3:00 AM)
Low42 °F (Aug 15, 6:00 AM)49% (Aug 16, 1:00 PM)29.35 "Hg (Aug 20, 6:00 AM)
Average59 °F85%30.02 "Hg
* Reported Aug 12 6:00 PM — Aug 27 6:00 PM, Bangor, Weather by CustomWeather, © 2016

Note: Actual official high and low records may vary slightly from our data, if they occured in-between our weather recording intervals... More about our weather records

Advertising

Bangor Weather History for the Previous 24 Hours

Scroll right to see more
 ConditionsComfort  
Time TempWeatherWind HumidityBarometerVisibility
6:00 PM
Sat, Aug 27
64 °FMild.12 mph79%29.93 "Hg19 mi
5:00 PM64 °FMild.9 mph75%29.95 "Hg31 mi
4:00 PM64 °FMild.9 mph76%29.97 "Hg22 mi
3:00 PM65 °FMild.9 mph70%29.99 "Hg25 mi
2:00 PM67 °FMild.8 mph64%30.01 "Hg19 mi
1:00 PM65 °FMild.8 mph66%30.03 "Hg28 mi
12:00 PM64 °FMild.5 mph68%30.06 "Hg25 mi
11:00 AM62 °FCool.6 mph77%30.08 "Hg25 mi
10:00 AM57 °FCool.3 mph90%30.11 "Hg19 mi
9:00 AM51 °FCool.1 mph100%30.11 "Hg25 mi
8:00 AM47 °FCool.1 mph100%30.13 "Hg9 mi
7:00 AM46 °FDuststorm.1 mph100%30.13 "Hg0 mi
6:00 AM48 °FDuststorm.2 mph99%30.13 "Hg0 mi
5:00 AM47 °FCool.3 mph99%30.13 "Hg6 mi
4:00 AM48 °FDuststorm.1 mph98%30.13 "Hg0 mi
3:00 AM50 °FCool.1 mph97%30.14 "Hg10 mi
2:00 AM50 °FCool.5 mph96%30.14 "Hg18 mi
1:00 AM51 °FCool.3 mph94%30.14 "Hg25 mi
12:00 AM54 °FCool.6 mph94%30.14 "Hg25 mi
11:00 PM
Fri, Aug 26
56 °FCool.7 mph91%30.15 "Hg18 mi
10:00 PM57 °FCool.10 mph86%30.13 "Hg31 mi
9:00 PM57 °FCool.10 mph88%30.13 "Hg18 mi
8:00 PM58 °FCool.17 mph86%30.10 "Hg25 mi
Weather by CustomWeather, © 2016

See weather overviewHow to use our weather pages